Location: Rowland
(34.5359°N, 79.2929°W)
Time: 21:06:02
(UTC+00:00)

Vanguard 2 - Pass Details

Date: 03 October 2022
Orbit: 553 x 2933 km, 32.9° (Epoch: 06 December)

Event Time Altitude Azimuth Distance (km) Brightness Sun altitude
Rises 01:10:28 0° 284° (WNW) 6,667 13.6 -27.5°
Reaches altitude 10° 01:15:30 10° 276° (W) 5,744 12.9 -28.5°
Maximum altitude 01:30:05 33° 221° (SW) 3,969 11.2 -31.4°
Enters shadow 01:40:28 15° 171° (S) 4,554 11.1 -33.4°
